カタログに戻る

THOR ABLESTAR DEB

運用中PO
NORAD 745·DEBRIS·🇺🇸 United States

打ち上げ Sep 28, 1963 から Vandenberg Space Force Base

Loading…

次のパス (今後24時間)

TLE

最新Source: Space-Track

元期: Sep 14, 2026, 05:04 UTC

1 00745U 63038E   26257.21174593  .00000168  00000-0  22699-3 0  9996
2 00745  89.9874 335.9806 0018665  40.0747 347.3205 13.55632988103496

AllMySatでTHOR ABLESTAR DEBをリアルタイム追跡

Download on the App Store